Cloud_Cover
4 5 0 0 0 0 0 0 0 0 0 0 0 0 0 0 18 28 99 100 100 100 100 81 27 91 88 92 40 9 46 80 98 100 92 57 35 34 62 47 39 35 37 55 45 36 26 20 2
5 1 0 0 0 0 0 5 3 0 0 0 0 0 0 46 11 72 100 100 100 100 100 84 26 46 24 5 5 4 2 1 3 5 5 5 37 98 100 100 100 97 77 99 99 55 49 26 20
3 0 0 0 0 0 0 2 0 0 0 0 1 0 0 96 50 95 51 84 100 100 98 100 100 80 16 5 5 0 1 5 4 5 17 5 5 5 24 90 29 100 88 6 8 5 5 3 2
5 0 0 0 0 0 0 0 0 0 0 0 1 0 3 5 34 84 100 100 100 100 100 100 100 89 84 100 6 5 5 40 77 100 100 99 99 100 100 99 100 100 88 5 5 5 0 0 0
0 0 0 0 0 0 0 0 0 0 0 4 3 0 0 5 28 19 97 95 100 100 99 86 99 100 100 100 100 78 58 82 100 100 78 87 56 79 99 100 100 100 33 4 5 1 1 0 2
0 0 0 0 0 0 2 4 0 1 3 0 0 0 0 5 28 69 78 100 100 98 80 88 57 100 100 100 100 100 100 99 100 82 30 33 20 16 6 59 90 87 71 22 66 5 5 5 5
0 3 2 0 0 0 0 0 0 0 0 5 5 2 5 55 69 26 30 48 99 100 100 21 10 63 100 100 80 80 25 13 100 100 87 99 22 28 56 64 90 100 94 88 100 100 100 5 5
0 5 5 2 5 0 0 0 0 5 0 0 5 5 40 4 31 50 96 44 100 98 91 68 14 41 100 100 97 90 70 76 95 98 82 100 100 100 96 86 76 90 5 5 5 19 60 100 52
0 0 5 1 1 1 1 4 5 5 5 0 0 0 4 5 5 5 5 26 43 59 59 61 76 54 76 93 90 80 78 100 92 93 81 100 98 80 5 5 5 5 60 78 50 100 100 100 23
1 6 6 5 2 5 1 46 10 5 2 5 5 2 1 5 0 0 0 0 5 4 5 5 6 8 5 29 6 6 51 7 5 41 19 36 21 10 12 51 63 5 4 0 2 25 45 71 26
5 9 5 5 0 5 5 87 100 42 2 11 4 5 5 0 0 4 0 3 5 6 5 5 5 49 61 61 32 34 14 5 5 5 5 5 5 4 5 6 4 4 3 0 0 0 0 0 0
41 55 5 5 5 4 92 100 79 64 4 4 5 14 49 30 4 5 5 5 8 5 2 0 2 2 4 4 5 5 5 5 5 5 5 5 5 5 5 5 5 2 0 0 0 0 0 0 0
100 99 58 10 5 8 72 100 100 72 17 63 63 44 5 5 4 3 5 5 5 4 5 5 4 4 5 2 5 3 5 2 0 0 0 2 0 2 4 5 2 2 1 0 0 3 4 3 0
100 100 100 25 47 5 29 62 100 100 100 74 77 98 73 5 3 7 5 20 9 5 5 5 5 5 5 4 5 4 3 3 4 5 5 6 6 5 5 5 5 4 1 0 0 0 4 5 4
5 100 100 100 100 89 100 100 52 100 100 100 100 100 100 100 98 60 5 5 5 5 5 57 28 12 5 5 6 5 5 5 5 5 1 0 2 0 0 0 0 0 0 0 0 0 0 5 48
94 100 100 100 100 27 5 38 17 52 61 47 94 100 100 100 100 100 100 100 100 100 80 72 36 36 22 9 23 9 11 5 5 4 3 4 4 0 0 0 0 0 0 3 5 4 5 40 100
5 82 100 100 100 100 69 65 61 36 70 97 100 100 100 100 100 99 96 92 91 45 5 17 10 5 7 5 18 39 4 5 4 5 7 5 2 2 0 2 5 7 32 58 95 99 100 97 100
34 9 66 100 100 100 100 100 100 78 59 100 100 100 98 100 100 93 9 5 5 5 5 8 9 22 23 46 14 5 5 5 5 9 42 5 4 5 1 5 6 65 79 100 100 86 97 83 67
5 56 71 6 99 100 100 100 100 100 100 100 100 97 98 100 96 40 28 76 56 34 5 5 5 5 5 5 5 5 19 46 54 88 6 5 3 5 2 3 5 5 7 26 19 19 18 14 97
75 47 46 85 7 17 92 96 100 100 100 100 100 100 100 100 100 100 100 100 100 6 5 5 21 76 26 5 5 45 33 5 48 19 4 5 5 5 5 15 30 10 41 80 41 77 42 100 97
53 16 69 75 88 86 99 91 100 100 100 100 100 100 100 100 100 100 100 90 5 5 5 2 5 5 5 5 18 12 39 48 18 8 5 5 5 5 5 9 71 80 100 100 84 71 85 70 62
6 15 88 93 42 33 22 34 100 100 100 100 100 100 100 100 100 85 65 46 5 5 5 5 6 5 20 11 5 5 18 51 20 5 5 4 0 0 5 75 14 7 5 26 51 57 96 99 90
38 100 99 100 100 72 7 78 100 100 100 100 100 100 100 100 100 100 100 100 79 32 12 19 20 27 6 5 8 71 78 51 37 7 27 2 5 2 5 42 12 93 5 8 46 62 87 92 100
48 100 83 92 100 99 93 100 99 100 99 100 100 100 100 100 100 100 100 100 100 100 83 17 5 32 37 100 94 88 95 94 87 66 87 56 37 99 58 16 5 4 5 5 3 25 63 69 97
100 100 100 76 100 100 100 96 99 100 100 98 100 100 100 100 100 100 100 100 100 77 100 100 83 100 100 100 76 63 65 87 99 94 100 100 100 80 29 5 1 0 0 2 5 5 5 9 59
100 100 100 100 100 100 92 31 99 98 100 100 100 100 100 100 100 100 100 100 100 100 100 100 100 100 97 84 44 98 100 100 100 100 100 100 33 11 5 0 0 0 0 0 0 2 5 5 5
100 100 100 100 100 100 90 22 26 100 100 100 96 72 100 100 100 100 100 100 100 100 100 100 100 96 96 97 92 100 100 100 100 100 99 19 5 4 4 1 0 0 0 0 5 5 16 19 0
100 100 100 100 100 100 100 100 100 98 100 96 100 100 92 92 100 100 100 100 100 100 100 100 100 85 93 97 100 100 100 100 100 37 5 5 5 5 5 3 0 0 1 5 5 7 92 32 15
100 100 100 100 100 100 100 54 100 100 100 100 100 100 100 100 100 98 99 99 100 100 100 100 89 100 100 100 100 100 100 72 27 15 24 5 5 5 3 5 4 5 5 44 5 100 100 100 100
100 100 100 100 77 100 100 73 81 100 99 100 100 100 100 100 100 100 100 100 100 100 100 100 100 100 100 100 100 100 37 22 5 6 5 5 5 5 5 5 5 5 23 78 93 100 100 100 100